sat.trackr.live / text

‹ back to catalog

RANDEV

NORAD 52898 · 2022-065E

PAYLOAD ACTIVE UNKNOWN

§ Identity

Operator
Country
SKOR
Launch date
2022-06-21
Launch site
NSC
Launch vehicle
Mass (kg)
RCS (m²)

External: N2YO · Heavens-Above · Gunter

§ Orbital elements

Epoch: 2026-09-20T23:23:53.939904Z

Period
98.37 min
Inclination
98.2356°
Eccentricity
0.0009212
Mean motion
14.63818029 rev/d
Perigee alt
674.4 km
Apogee alt
687.4 km
Semi-major
7,059.0 km
B*
1.0631e-4
RAAN
48.0605°
Arg perigee
85.2696°
Mean anomaly
274.9558°
Rev number
22,526

§ Raw data

RANDEV1 52898U 22065E   26263.97492986  .00000507  00000+0  10631-3 0  99952 52898  98.2356  48.0605 0009212  85.2696 274.9558 14.63818029225269

JSON: /api/v1/satellites/52898 · /tle

For live sub-satellite position, see the globe view (requires WebGL).

§ Visibility from observer

Set your observer location to see the next 7 days of passes ≥ 10°. The values pass through the URL so the page stays shareable.

No JS? Fill the form by hand. The geolocation button needs JavaScript.

§ Radio — SatNOGS DB

ModeDescriptionDownlinkUplink
BPSK Mode U - BPSK1k2 436.029 MHz
BPSK Mode U - BPSK9k6 (inactive) 436.029 MHz

2 transmitters · refreshed weekly from db.satnogs.org